STARLINK-11365, 62886

Orbit data source: Space-Track

STARLINK-11365, 62886 is a payload satellite owned by SpaceX/Seattle (US) in LEO that was launched on Tue, 04 Feb 2025 UTC via an FALCON 9 launch vehicle from the Air Force Eastern Test Range (AFETR). Payload-class satellites include a variety of spacecraft equipped with specific instruments for various scientific and technological missions. These include communications satellites like Starlink; space stations such as the ISS; scientific satellites like the Hubble; Earth observation satellites from companies like Planet Labs, Umbra, and HawkEye 360; GPS; miniature CubeSats for education and research; and military/defense satellites.

Loading next visibility...
Identifier
62886, 2025-024H
Orbit
LEO
Last TLE update
15 hours ago
Origin
Manufacturer
SpaceX/Seattle
Mission
Operational Commercial Communications
Bus & Motor
STARLINK V2M, Unknown motor
Mass
730 kg wet, ~700 kg dry
Launch date (UTC)
2025-02-04 (5 months ago)
Launch vehicle
FALCON 9
Launch site
Air Force Eastern Test Range (AFETR)
Object type
Payload
Rocket body
Debris
Shape & HBR
Box + 2 Pan, 29 m
Radar Cross Section
36.964 m², Large (>1 m²)

Expand to show TLE details & history

TLE from 15 hours ago
0 STARLINK-11365
1 62886U 25024H   25182.55941231  .00220201  00000-0  16705-2 0  9999
2 62886  42.9989 254.8878 0001301 343.4504  16.6321 15.70897125 24373
Epoch: 2025-07-01T13:25Z
TLE epoch observation values (Epoch: 2025-07-01T13:25:33.223Z)
Latitude
-0.00002°
Longitude
133.64622°
Altitude
355.263 km
Speed
7.698 km/s
True Right ascension
16h 59m 33s
True Declination
0° 00' 00"
Sunlit
Object was in full shadow at epoch
Visualization orbit readout
Latitude
-43.1294°
Longitude
42.53702°
Altitude
368.626 km
Speed
7.689 km/s
Apparent Right ascension
07h 28m 31s
Apparent Declination
-54° 59' 19"
Sunlit
Object is in daylight
Visualization observer readout
Local Sidereal Time
16:00:00
Azimuth
228.394° WSW
Elevation
-52.72°
Doppler factor
1
Orbital elements
Apogee altitude
359.19 km
Perigee altitude
357.437 km
Semi-major axis
6,736.451 km
Eccentricity
0.00013
Inclination
42.9989°
RAAN
254.8878°
Arg. of periapsis
343.4504°
True anomaly
Unknown
Mean anomaly
16.6321°
Eccentric anomaly
Unknown
Mean motion
3.92551 °/min
Orbital period
91.71 mins
BSTAR
0.0016705
Loading maneuver chart data...
Loading SW <> Apogee altitude chart data...
Loading historical data...
Loading historical data...
Loading historical data...
Loading historical data...
Loading historical data...
Loading historical data...
Loading historical data...

STARLINK-11365 Visibility forecast

Observer location: undefined°, undefined°

Span
Click to sort rows by Start time (UTC) header in descending order
Start Az.
Max El. time (UTC)
Max El. Az.
Max El.
End time (UTC)
End Az.
4 mins2025-07-02 07:56:37.139Z202.068° SSW2025-07-02 07:58:37.139Z148.483° SSE23.43°2025-07-02 08:00:37.139Z96.242° ESE
4 mins2025-07-02 09:32:37.139Z264.827° W2025-07-02 09:34:37.139Z3.805° NNE42.558°2025-07-02 09:36:37.139Z66.977° ENE
4 mins2025-07-02 11:09:37.139Z307.41° NW2025-07-02 11:10:37.139Z350.34° N34.212°2025-07-02 11:13:37.139Z77.194° E
4 mins2025-07-02 12:45:37.139Z284.579° WNW2025-07-02 12:46:37.139Z272.232° WNW41.617°2025-07-02 12:49:37.139Z113.036° SE
|